Mount Airy, NC

8:39 AM EST on December 13, 2019 (GMT -0500)
Mount Airy-Surry County

Weather History for KMWK - July, 2019

Change the Weather History Date:

Monday, July 22, 2019

  Actual Average (WUND) Record (WUND)
Temperature  
Mean Temperature 79 °F -  
Max Temperature 86 °F - - (-1)
Min Temperature 72 °F - - (-1)
Cooling Degree Days 14    
Growing Degree Days 29 (Base 50)    
Moisture  
Dew Point 72 °F    
Average Humidity 87    
Maximum Humidity 91    
Minimum Humidity 72    
Precipitation  
Precipitation 0.00 in - - ()
Sea Level Pressure  
Sea Level Pressure 29.99 in    
Wind  
Wind Speed 1 mph (SSW)    
Max Wind Speed 10 mph    
Max Gust Speed 17 mph    
Visibility 10 miles    
Events Rain    
Averages and records for this station are not official NWS values.
T = Trace of Precipitation, MM = Missing Value Source: NWS Daily Summary

Daily Weather History Graph

Daily Weather History Graph

Search for Another Location

Airport or City:

Astronomy

Jul. 22, 2019 Rise Set
Actual Time 6:20 AM EDT 8:36 PM EDT
Civil Twilight 5:51 AM EDT 9:05 PM EDT
Nautical Twilight 5:15 AM EDT 9:41 PM EDT
Astronomical Twilight 4:36 AM EDT 10:20 PM EDT
Moon No Moon Rise 11:28 AM EDT (7/22)
Length of Visible Light 15h 14m
Length of Day
14h 15m
Waning Gibbous, 72% of the Moon is Illuminated
Jul 22
Waning Gibbous
Jul 24
Last Quarter
Jul 31
New
Aug 7
First Quarter
Aug 15
Full

Hourly Weather History & Observations

Time (EDT) Temp. Heat Index Dew Point Humidity Pressure Visibility Wind Dir Wind Speed Gust Speed Precip Events Conditions
12:00 AM 76.1 °F - 73.2 °F 91% 30.03 in 10.0 mi Calm Calm - N/A   Clear
12:20 AM 76.3 °F - 73.2 °F 90% 30.03 in 10.0 mi Calm Calm - N/A   Scattered Clouds
12:40 AM 75.6 °F - 72.7 °F 91% 30.03 in 10.0 mi Calm Calm - N/A   Scattered Clouds
1:00 AM 74.8 °F - 72.0 °F 91% 30.03 in 10.0 mi Calm Calm - N/A   Clear
1:20 AM 74.3 °F - 71.6 °F 91% 30.03 in 10.0 mi Calm Calm - N/A   Clear
1:40 AM 75.0 °F - 72.1 °F 91% 30.03 in 10.0 mi Calm Calm - N/A   Clear
2:00 AM 75.4 °F - 72.3 °F 90% 30.02 in 10.0 mi Calm Calm - N/A   Clear
2:20 AM 75.4 °F - 72.3 °F 90% 30.01 in 10.0 mi Calm Calm - N/A   Clear
2:40 AM 74.8 °F - 71.6 °F 90% 30.00 in 10.0 mi Calm Calm - N/A   Clear
3:00 AM 74.5 °F - 71.6 °F 91% 30.00 in 10.0 mi Calm Calm - N/A   Clear
3:20 AM 73.6 °F - 70.9 °F 91% 30.00 in 10.0 mi Calm Calm - N/A   Clear
3:40 AM 73.8 °F - 70.9 °F 91% 30.00 in 10.0 mi Calm Calm - N/A   Clear
4:00 AM 73.9 °F - 71.2 °F 91% 30.01 in 10.0 mi Calm Calm - N/A   Clear
4:20 AM 73.9 °F - 71.1 °F 91% 30.00 in 10.0 mi Calm Calm - N/A   Scattered Clouds
4:40 AM 73.2 °F - 70.5 °F 91% 30.00 in 10.0 mi Calm Calm - N/A   Scattered Clouds
5:00 AM 73.0 °F - 70.2 °F 91% 30.00 in 10.0 mi Calm Calm - N/A   Mostly Cloudy
5:20 AM 73.4 °F - 70.5 °F 91% 30.00 in 10.0 mi Calm Calm - N/A   Scattered Clouds
5:40 AM 73.4 °F - 70.5 °F 91% 29.99 in 10.0 mi Calm Calm - N/A   Clear
6:00 AM 72.5 °F - 69.4 °F 90% 29.99 in 10.0 mi Calm Calm - N/A   Clear
6:20 AM 72.5 °F - 69.8 °F 91% 30.00 in 10.0 mi Calm Calm - N/A   Clear
6:40 AM 73.0 °F - 70.2 °F 91% 30.00 in 10.0 mi Calm Calm - N/A   Clear
7:00 AM 73.4 °F - 70.7 °F 91% 30.01 in 10.0 mi Calm Calm - N/A   Clear
7:20 AM 73.6 °F - 70.7 °F 91% 30.01 in 10.0 mi Calm Calm - N/A   Clear
7:40 AM 73.9 °F - 71.2 °F 91% 30.01 in 10.0 mi Calm Calm - N/A   Scattered Clouds
8:00 AM 74.3 °F - 71.6 °F 91% 30.02 in 10.0 mi Calm Calm - N/A   Clear
8:20 AM 75.4 °F - 72.7 °F 91% 30.03 in 10.0 mi Calm Calm - N/A   Scattered Clouds
8:40 AM 76.1 °F - 72.7 °F 89% 30.03 in 10.0 mi Calm Calm - N/A   Scattered Clouds
9:00 AM 76.3 °F - 72.9 °F 89% 30.03 in 10.0 mi Calm Calm - N/A   Scattered Clouds
9:20 AM 76.8 °F - 73.2 °F 89% 30.03 in 10.0 mi Calm Calm - N/A   Clear
9:40 AM 77.4 °F - 73.6 °F 88% 30.02 in 10.0 mi Calm Calm - N/A   Scattered Clouds
10:00 AM 77.9 °F - 73.8 °F 87% 30.02 in 10.0 mi Calm Calm - N/A   Clear
10:20 AM 78.6 °F - 74.3 °F 87% 30.03 in 10.0 mi Calm Calm - N/A   Scattered Clouds
10:40 AM 79.7 °F - 75.0 °F 86% 30.02 in 10.0 mi Calm Calm - N/A   Scattered Clouds
11:00 AM 80.4 °F 85.8 °F 75.0 °F 84% 30.02 in 10.0 mi Calm Calm - N/A   Clear
11:20 AM 81.0 °F 86.9 °F 75.2 °F 83% 30.02 in 10.0 mi SE 3.5 mph - N/A   Clear
11:40 AM 81.9 °F 88.5 °F 75.2 °F 80% 30.02 in 10.0 mi Calm Calm - N/A   Clear
12:00 PM 82.6 °F 89.9 °F 75.4 °F 79% 30.02 in 10.0 mi WSW 3.5 mph - N/A   Clear
12:20 PM 82.2 °F 89.1 °F 75.0 °F 79% 30.01 in 10.0 mi SW 5.8 mph - N/A   Clear
1:00 PM 84.2 °F 93.8 °F 76.6 °F 78% 30.00 in 10.0 mi Calm Calm - N/A   Clear
1:15 PM 85.1 °F 94.9 °F 76.3 °F 75% 29.99 in 10.0 mi SSE 9.2 mph - N/A   Clear
1:40 PM 85.6 °F 95.0 °F 75.7 °F 72% 29.98 in 10.0 mi SSE 8.1 mph - N/A   Scattered Clouds
2:00 PM 85.5 °F 96.3 °F 77.0 °F 76% 29.97 in 10.0 mi SE 5.8 mph - N/A   Scattered Clouds
2:10 PM 86.2 °F 97.4 °F 77.2 °F 74% 29.97 in 10.0 mi SSE 5.8 mph - N/A   Scattered Clouds
2:40 PM 83.7 °F 92.7 °F 76.5 °F 79% 29.97 in 10.0 mi SSE 6.9 mph - N/A Rain Light Rain
2:45 PM 82.9 °F 91.2 °F 76.1 °F 80% 29.97 in 10.0 mi SSE 6.9 mph - N/A   Light Drizzle
3:20 PM 83.1 °F 91.3 °F 76.1 °F 79% 29.95 in 10.0 mi SE 3.5 mph - N/A   Scattered Clouds
3:30 PM 83.5 °F 91.9 °F 76.1 °F 78% 29.95 in 10.0 mi SSE 5.8 mph - N/A   Scattered Clouds
4:00 PM 80.2 °F 84.6 °F 73.0 °F 79% 29.95 in 10.0 mi North 8.1 mph 17.3 mph N/A   Mostly Cloudy
4:20 PM 77.9 °F - 72.5 °F 83% 29.96 in 10.0 mi NW 5.8 mph - N/A   Mostly Cloudy
4:40 PM 77.4 °F - 71.4 °F 82% 29.97 in 10.0 mi NW 9.2 mph - N/A   Mostly Cloudy
4:55 PM 75.0 °F - 69.4 °F 83% 29.97 in 10.0 mi NW 6.9 mph - N/A Rain Light Rain
5:20 PM 72.7 °F - 69.6 °F 90% 29.96 in 10.0 mi NW 3.5 mph - N/A Rain Light Rain
5:40 PM 72.5 °F - 69.6 °F 91% 29.98 in 4.0 mi WNW 10.4 mph 17.3 mph N/A Rain Heavy Rain
6:00 PM 72.5 °F - 69.8 °F 91% 29.96 in 5.0 mi West 5.8 mph - N/A Rain Rain
6:20 PM 73.8 °F - 70.9 °F 91% 29.95 in 10.0 mi NW 4.6 mph - N/A   Light Drizzle
6:40 PM 73.6 °F - 70.7 °F 91% 29.95 in 10.0 mi Calm Calm - N/A Rain Light Rain
7:00 PM 74.3 °F - 71.1 °F 90% 29.95 in 10.0 mi Calm Calm - N/A   Scattered Clouds
7:20 PM 73.8 °F - 70.7 °F 90% 29.95 in 10.0 mi Calm Calm - N/A Rain Light Rain
7:40 PM 73.4 °F - 70.7 °F 91% 29.96 in 10.0 mi SSE 3.5 mph - N/A   Clear
8:00 PM 73.4 °F - 70.7 °F 91% 29.97 in 10.0 mi SSW 3.5 mph - N/A   Clear
8:20 PM 72.9 °F - 70.2 °F 91% 29.97 in 10.0 mi Calm Calm - N/A   Clear
10:00 PM 72.5 °F - 69.8 °F 91% 29.97 in 10.0 mi Calm Calm - N/A   Clear
10:20 PM 72.5 °F - 69.8 °F 91% 29.96 in 10.0 mi Calm Calm - N/A   Scattered Clouds
10:40 PM 72.5 °F - 69.8 °F 91% 29.97 in 10.0 mi Calm Calm - N/A   Mostly Cloudy
11:00 PM 72.5 °F - 69.8 °F 91% 29.98 in 10.0 mi Calm Calm - N/A   Mostly Cloudy
11:20 PM 72.5 °F - 69.8 °F 91% 29.99 in 7.0 mi Calm Calm - N/A   Overcast
11:40 PM 72.5 °F - 69.8 °F 91% 29.97 in 10.0 mi Calm Calm - N/A Rain Rain